map of CDG home
CDG - Airport
Location
City:  Paris, Īle-de-France, France
Near (Alt.):Roissy-en-France
Name:Charles de Gaulle
Old (Alt.):Roissy
ICAO:LFPG
IATA:CDG

Details
Type:Airport (Aerodrome, Airfield)
Use:Public/Civil, International (customs port of entry)
Latitude:49°00'35"N (49.009722)
Longitude:2°32'52"E (2.547778)
Elevation:392 ft (119 m)
Variation:0.71°E (WMM2015 magnetic declination)
0.13° annual change
Runways:4
Longest:13829 × 148 ft (4215 × 45 m), paved

Time
Time Zone:UTC+1 (DST+2)
Local Time:

Weather
METAR:LFPG 210930Z 35010KT 320V020 9999 BKN020 SCT260 18/12 Q1022 NOSIG
TAF:LFPG 210500Z 2106/2212 32010KT 8000 BKN005 PROB30
TEMPO 2106/2107 BKN003
BECMG 2107/2109 BKN020
BECMG 2113/2116 02010G20KT TX21/2115Z TN10/2203Z

Related Locations
Nearby:
Farthest:CHT: 12068 mi / 19421 km
Waitangi [Tuuta], CIT, NZ

Find:

   beyond  
but within

Other Information
Maps:
NOTAMs:
Links:
Sources:

  
  • flag of France
  • flag of Īle-de-France
  • flag of Paris
  

Sectional Chart

Flight Planning
at skyvector.com

Satellite Image

Google Maps Satellite view

 

Copyright © 2004-2018 Karl L. Swartz. All rights reserved.
The Great Circle Mapper name and logo are trademarks of the Great Circle Mapper.
All other trademarks mentioned herein belong to their respective owners.
Please see credits for attibutions and further copyright information.

  Follow gcmap on Facebook Follow gcmap on Twitter Follow gcmap on Google+ GCmap on LinkedIn

hCard Microformat

Geo Microformat